Weather History for KLNS - November, 2013

Change the Weather History Date:

Saturday, November 23, 2013

  Actual Average Record
Temperature  
Mean Temperature 39 °F -  
Max Temperature 50 °F 50 °F 69 °F (1979)
Min Temperature 27 °F 31 °F 15 °F (1984)
Degree Days  
Heating Degree Days 26    
Moisture  
Dew Point 23 °F    
Average Humidity 54    
Maximum Humidity 74    
Minimum Humidity 38    
Precipitation  
Precipitation 0.00 in - - ()
Sea Level Pressure  
Sea Level Pressure 30.08 in    
Wind  
Wind Speed 14 mph (WNW)    
Max Wind Speed 22 mph    
Max Gust Speed 31 mph    
Visibility 10 miles    
Events      
Averages and records for this station are not official NWS values.
T = Trace of Precipitation, MM = Missing Value Source: NWS Daily Summary

Daily Weather History Graph

Daily Weather History Graph

Search for Another Location

Airport or City:

Trip Planner

Search our weather history database for the weather conditions in past years. The results will help you decide how hot, cold, wet, or windy it might be!

Date:

Astronomy

Nov. 23, 2013 Rise Set
Actual Time 6:59 AM EST 4:43 PM EST
Civil Twilight 6:30 AM EST 5:12 PM EST
Nautical Twilight 5:57 AM EST 5:45 PM EST
Astronomical Twilight 5:24 AM EST 6:18 PM EST
Moon 10:09 PM EST (11/23) 11:15 AM EST (11/23)
Length of Visible Light 10h 42m
Length of Day
9h 43m
Waning Gibbous, 70% of the Moon is Illuminated
Nov 23
Waning Gibbous
Nov 25
Last Quarter
Dec 2
New
Dec 9
First Quarter
Dec 17
Full

Hourly Weather History & Observations

Time (EST) Temp. Windchill Dew Point Humidity Pressure Visibility Wind Dir Wind Speed Gust Speed Precip Events Conditions
12:53 AM 50.0 °F - 42.1 °F 74% 30.03 in 10.0 mi WNW 18.4 mph - N/A   Overcast
1:53 AM 46.9 °F - 37.9 °F 71% 30.06 in 10.0 mi WNW 10.4 mph - N/A   Clear
2:53 AM 45.0 °F 38.5 °F 33.1 °F 63% 30.06 in 10.0 mi NW 13.8 mph - N/A   Clear
3:53 AM 41.0 °F 35.8 °F 30.9 °F 67% 30.09 in 10.0 mi WNW 8.1 mph - N/A   Clear
4:53 AM 39.0 °F 33.4 °F 28.0 °F 65% 30.10 in 10.0 mi NW 8.1 mph - N/A   Clear
5:53 AM 37.9 °F 30.5 °F 25.0 °F 60% 30.12 in 10.0 mi NW 11.5 mph - N/A   Clear
6:53 AM 34.0 °F 28.0 °F 25.0 °F 70% 30.14 in 10.0 mi WNW 6.9 mph - N/A   Clear
7:53 AM 35.1 °F 28.6 °F 25.0 °F 67% 30.14 in 10.0 mi NW 8.1 mph - N/A   Clear
8:53 AM 37.9 °F 29.6 °F 24.1 °F 57% 30.14 in 10.0 mi NW 13.8 mph 20.7 mph N/A   Clear
9:53 AM 39.9 °F 32.9 °F 25.0 °F 55% 30.13 in 10.0 mi WNW 11.5 mph - N/A   Clear
10:53 AM 42.1 °F 35.7 °F 25.0 °F 51% 30.12 in 10.0 mi WNW 11.5 mph - N/A   Clear
11:53 AM 41.0 °F 33.1 °F 24.1 °F 51% 30.09 in 10.0 mi WNW 15.0 mph - N/A   Clear
12:53 PM 42.1 °F 35.7 °F 23.0 °F 47% 30.06 in 10.0 mi NW 11.5 mph 18.4 mph N/A   Clear
1:53 PM 41.0 °F 33.1 °F 23.0 °F 49% 30.02 in 10.0 mi WNW 15.0 mph 24.2 mph N/A   Clear
2:53 PM 39.9 °F 30.5 °F 21.0 °F 47% 30.01 in 10.0 mi West 19.6 mph - N/A   Clear
3:53 PM 39.9 °F 32.1 °F 19.9 °F 45% 30.01 in 10.0 mi West 13.8 mph 21.9 mph N/A   Clear
4:53 PM 39.0 °F 31.4 °F 19.0 °F 45% 30.01 in 10.0 mi West 12.7 mph - N/A   Partly Cloudy
5:53 PM 37.9 °F 31.5 °F 19.0 °F 47% 30.02 in 10.0 mi West 9.2 mph - N/A   Overcast
6:53 PM 36.0 °F 24.7 °F 19.0 °F 50% 30.05 in 10.0 mi WNW 21.9 mph 29.9 mph N/A   Overcast
7:53 PM 34.0 °F 22.4 °F 16.0 °F 48% 30.08 in 10.0 mi NW 20.7 mph 28.8 mph N/A   Mostly Cloudy
8:53 PM 32.0 °F 20.1 °F 12.9 °F 45% 30.09 in 10.0 mi NW 19.6 mph 28.8 mph N/A   Clear
9:53 PM 30.0 °F 19.5 °F 10.9 °F 45% 30.12 in 10.0 mi NW 13.8 mph 23.0 mph N/A   Partly Cloudy
10:53 PM 28.9 °F 15.4 °F 6.1 °F 38% 30.14 in 10.0 mi NW 21.9 mph 31.1 mph N/A   Clear
11:53 PM 27.0 °F 13.5 °F 9.0 °F 47% 30.17 in 10.0 mi NW 19.6 mph 27.6 mph N/A   Mostly Cloudy